• In Hungary
  • List of Countries
  • For 7 days
  • Water Temperature
  • Satellite Maps
  • Weather Map
  • News
  • Weather Widgets
  • user-avatar
    Login

    Hourly Weather SanFrancisco

    Today, 18 June, Monday

    Time Temperature Precipitation Wind Pressure Humidity
    00:00 +25°C° 0.1 mm 2 mps 754 mmHg 93%
    01:00 +25°C° 0.1 mm 2 mps 754 mmHg 94%
    02:00 +25°C° 0.8 mm 2 mps 754 mmHg 94%
    03:00 +25°C° 0.8 mm 2 mps 754 mmHg 94%
    04:00 +24°C° 0.8 mm 2 mps 754 mmHg 94%
    05:00 +25°C° 0.6 mm 2 mps 754 mmHg 92%
    06:00 +25°C° 0.6 mm 2 mps 755 mmHg 90%
    07:00 +26°C° 0.6 mm 3 mps 755 mmHg 88%
    08:00 +27°C° 0.9 mm 3 mps 755 mmHg 86%
    09:00 +28°C° 0.9 mm 4 mps 756 mmHg 83%
    10:00 +29°C° 0.9 mm 4 mps 756 mmHg 80%
    11:00 +29°C° 1 mm 4 mps 755 mmHg 79%
    12:00 +29°C° 1 mm 4 mps 755 mmHg 78%
    13:00 +30°C° 1 mm 3 mps 754 mmHg 77%
    14:00 +29°C° 1.1 mm 3 mps 754 mmHg 78%
    15:00 +29°C° 1.1 mm 3 mps 753 mmHg 79%
    16:00 +29°C° 1.1 mm 3 mps 753 mmHg 80%
    17:00 +28°C° 0.3 mm 3 mps 753 mmHg 84%
    18:00 +27°C° 0.3 mm 2 mps 753 mmHg 87%
    19:00 +26°C° 0.3 mm 2 mps 753 mmHg 91%
    20:00 +26°C° 0 mm 2 mps 754 mmHg 91%
    21:00 +25°C° 0 mm 2 mps 754 mmHg 92%
    22:00 +25°C° 0 mm 2 mps 755 mmHg 93%
    23:00 +25°C° 0 mm 2 mps 754 mmHg 92%

    Tomorrow, 19 June, Tuesday

    Time Temperature Precipitation Wind Pressure Humidity
    00:00 +25°C° 0 mm 2 mps 754 mmHg 92%
    01:00 +25°C° 0 mm 2 mps 754 mmHg 92%
    02:00 +25°C° 0 mm 2 mps 754 mmHg 92%
    03:00 +25°C° 0 mm 2 mps 753 mmHg 92%
    04:00 +24°C° 0 mm 2 mps 753 mmHg 92%
    05:00 +25°C° 0 mm 2 mps 754 mmHg 91%
    06:00 +25°C° 0 mm 2 mps 754 mmHg 91%
    07:00 +25°C° 0 mm 3 mps 754 mmHg 90%
    08:00 +25°C° 0.1 mm 3 mps 755 mmHg 89%
    09:00 +25°C° 0.1 mm 3 mps 755 mmHg 88%
    10:00 +25°C° 0.1 mm 3 mps 756 mmHg 87%
    11:00 +25°C° 0.7 mm 3 mps 756 mmHg 89%
    12:00 +24°C° 0.7 mm 3 mps 755 mmHg 90%
    13:00 +24°C° 0.7 mm 3 mps 755 mmHg 92%
    14:00 +24°C° 0.6 mm 3 mps 755 mmHg 92%
    15:00 +24°C° 0.6 mm 3 mps 754 mmHg 92%
    16:00 +24°C° 0.6 mm 2 mps 754 mmHg 92%
    17:00 +24°C° 0 mm 2 mps 754 mmHg 93%
    18:00 +24°C° 0 mm 1 mps 754 mmHg 93%
    19:00 +23°C° 0 mm 1 mps 754 mmHg 93%
    20:00 +23°C° 0 mm 1 mps 755 mmHg 94%
    21:00 +23°C° 0 mm 1 mps 755 mmHg 94%
    22:00 +23°C° 0 mm 1 mps 755 mmHg 94%
    23:00 +23°C° 0 mm 1 mps 755 mmHg 94%

    Day after tomorrow, 20 June, Wednesday

    Time Temperature Precipitation Wind Pressure Humidity
    00:00 +23°C° 0 mm 1 mps 754 mmHg 95%
    01:00 +22°C° 0 mm 1 mps 754 mmHg 96%
    02:00 +22°C° 0 mm 1 mps 754 mmHg 96%
    03:00 +22°C° 0 mm 1 mps 753 mmHg 96%
    04:00 +22°C° 0 mm 1 mps 753 mmHg 96%
    05:00 +23°C° 0 mm 1 mps 754 mmHg 94%
    06:00 +23°C° 0 mm 1 mps 754 mmHg 92%
    07:00 +24°C° 0 mm 2 mps 755 mmHg 90%
    08:00 +25°C° 0 mm 2 mps 755 mmHg 86%
    09:00 +26°C° 0 mm 2 mps 756 mmHg 81%
    10:00 +27°C° 0 mm 2 mps 756 mmHg 77%
    11:00 +27°C° 0.2 mm 2 mps 755 mmHg 78%
    12:00 +27°C° 0.2 mm 2 mps 755 mmHg 79%
    13:00 +27°C° 0.2 mm 2 mps 754 mmHg 81%
    14:00 +27°C° 0.1 mm 2 mps 754 mmHg 79%
    15:00 +28°C° 0.1 mm 2 mps 753 mmHg 77%
    16:00 +28°C° 0.1 mm 1 mps 752 mmHg 75%
    17:00 +27°C° 0 mm 1 mps 753 mmHg 79%
    18:00 +26°C° 0 mm 1 mps 753 mmHg 82%
    19:00 +25°C° 0 mm 1 mps 753 mmHg 86%
    20:00 +25°C° 0 mm 1 mps 754 mmHg 88%
    21:00 +24°C° 0 mm 1 mps 754 mmHg 89%
    22:00 +24°C° 0 mm 1 mps 754 mmHg 90%
    23:00 +24°C° 0.2 mm 1 mps 754 mmHg 91%

    21 June, Thursday

    Time Temperature Precipitation Wind Pressure Humidity
    00:00 +24°C° 0.2 mm 1 mps 754 mmHg 91%
    01:00 +24°C° 0.2 mm 1 mps 754 mmHg 92%
    02:00 +24°C° 0 mm 1 mps 753 mmHg 92%
    03:00 +22°C° 0 mm 0 mps 753 mmHg 92%
    04:00 +21°C° 0 mm 0 mps 753 mmHg 93%
    05:00 +24°C° 0 mm 1 mps 754 mmHg 91%
    06:00 +25°C° 0 mm 1 mps 754 mmHg 88%
    07:00 +26°C° 0 mm 1 mps 755 mmHg 86%
    08:00 +27°C° 0.3 mm 1 mps 755 mmHg 80%
    09:00 +28°C° 0.3 mm 2 mps 755 mmHg 74%
    10:00 +30°C° 0.3 mm 2 mps 755 mmHg 68%
    11:00 +31°C° 0.1 mm 2 mps 755 mmHg 65%
    12:00 +32°C° 0.1 mm 2 mps 754 mmHg 61%
    13:00 +32°C° 0.1 mm 2 mps 753 mmHg 57%
    14:00 +32°C° 0.5 mm 2 mps 753 mmHg 60%
    15:00 +32°C° 0.5 mm 1 mps 752 mmHg 63%
    16:00 +31°C° 0.5 mm 1 mps 752 mmHg 65%
    17:00 +30°C° 0 mm 1 mps 752 mmHg 70%
    18:00 +28°C° 0 mm 1 mps 752 mmHg 75%
    19:00 +25°C° 0 mm 0 mps 752 mmHg 80%
    20:00 +26°C° 0.2 mm 1 mps 753 mmHg 82%
    21:00 +26°C° 0.2 mm 1 mps 753 mmHg 84%
    22:00 +26°C° 0.2 mm 1 mps 754 mmHg 86%
    23:00 +25°C° 0.9 mm 1 mps 753 mmHg 88%

    22 June, Friday

    Time Temperature Precipitation Wind Pressure Humidity
    00:00 +25°C° 0.9 mm 1 mps 753 mmHg 89%
    01:00 +25°C° 0.9 mm 1 mps 753 mmHg 90%
    02:00 +23°C° 0.4 mm 0 mps 753 mmHg 90%
    03:00 +22°C° 0.4 mm 0 mps 753 mmHg 91%
    04:00 +22°C° 0.4 mm 0 mps 753 mmHg 91%
    05:00 +23°C° 0.2 mm 0 mps 753 mmHg 89%
    06:00 +25°C° 0.2 mm 1 mps 754 mmHg 87%
    07:00 +26°C° 0.2 mm 1 mps 755 mmHg 86%
    08:00 +27°C° 0.8 mm 1 mps 755 mmHg 82%
    09:00 +29°C° 0.8 mm 1 mps 755 mmHg 78%
    10:00 +30°C° 0.8 mm 2 mps 755 mmHg 75%
    11:00 +31°C° 0.9 mm 1 mps 754 mmHg 72%
    12:00 +31°C° 0.9 mm 1 mps 753 mmHg 69%
    13:00 +32°C° 0.9 mm 1 mps 753 mmHg 66%
    14:00 +32°C° 0.5 mm 1 mps 752 mmHg 67%
    15:00 +31°C° 0.5 mm 1 mps 751 mmHg 69%
    16:00 +31°C° 0.5 mm 1 mps 751 mmHg 71%
    17:00 +30°C° 0.3 mm 1 mps 751 mmHg 76%
    18:00 +28°C° 0.3 mm 1 mps 751 mmHg 81%
    19:00 +27°C° 0.3 mm 1 mps 752 mmHg 86%
    20:00 +27°C° 0.2 mm 1 mps 752 mmHg 87%
    21:00 +27°C° 0.2 mm 1 mps 752 mmHg 87%
    22:00 +27°C° 0.2 mm 1 mps 753 mmHg 88%
    23:00 +26°C° 0.3 mm 1 mps 752 mmHg 88%

    23 June, Saturday

    Time Temperature Precipitation Wind Pressure Humidity
    00:00 +26°C° 0.3 mm 1 mps 752 mmHg 89%
    01:00 +26°C° 0.3 mm 1 mps 752 mmHg 89%
    02:00 +26°C° 1.4 mm 1 mps 752 mmHg 90%
    03:00 +26°C° 1.4 mm 1 mps 752 mmHg 90%
    04:00 +25°C° 1.4 mm 1 mps 752 mmHg 91%
    05:00 +26°C° 0.9 mm 1 mps 752 mmHg 90%
    06:00 +26°C° 0.9 mm 1 mps 753 mmHg 90%
    07:00 +26°C° 0.9 mm 1 mps 753 mmHg 89%
    08:00 +27°C° 1.5 mm 2 mps 753 mmHg 87%
    09:00 +28°C° 1.5 mm 2 mps 753 mmHg 84%
    10:00 +28°C° 1.5 mm 2 mps 754 mmHg 82%
    11:00 +29°C° 0.6 mm 2 mps 753 mmHg 80%
    12:00 +29°C° 0.6 mm 2 mps 752 mmHg 78%
    13:00 +30°C° 0.6 mm 2 mps 751 mmHg 76%
    14:00 +30°C° 0.2 mm 2 mps 751 mmHg 75%
    15:00 +30°C° 0.2 mm 2 mps 750 mmHg 74%
    16:00 +30°C° 0.2 mm 2 mps 750 mmHg 74%
    17:00 +29°C° 0.6 mm 2 mps 750 mmHg 80%
    18:00 +28°C° 0.6 mm 2 mps 750 mmHg 85%
    19:00 +27°C° 0.6 mm 1 mps 751 mmHg 91%
    20:00 +27°C° 1 mm 1 mps 751 mmHg 92%
    21:00 +27°C° 1 mm 1 mps 752 mmHg 92%
    22:00 +26°C° 1 mm 1 mps 752 mmHg 93%
    23:00 +26°C° 0.9 mm 1 mps 752 mmHg 92%
    Show more